Regional Weather Roundup
Issued by NWS

Home | Current Version | Previous Version | Text Only | Print | Product List | Glossary Off
Versions: 1 2 3 4 5 6 7 8 9 10 11 12 13 14 15 16 17 18 19 20 21 22 23 24 25 26 27 28 29 30 31 32 33 34 35 36 37 38 39 40 41 42 43 44 45 46 47 48 49 50

000
ASUS43 KMKX 261810
RWRWI

WISCONSIN REGIONAL WEATHER ROUNDUP
NATIONAL WEATHER SERVICE MILWAUKEE/SULLIVAN WI
100 PM CDT THU MAR 26 2015

NOTE: "FAIR" INDICATES FEW OR NO CLOUDS BELOW 12,000 FEET WITH NO
SIGNIFICANT WEATHER AND/OR OBSTRUCTIONS TO VISIBILITY.

WIZ001-002-006>008-014>016-023>028-261900-
NORTHWEST WISCONSIN

CITY           SKY/WX    TMP DP  RH WIND       PRES   REMARKS
SUPERIOR ARPT  PTSUNNY   29  13  50 NW10      30.14S WCI  20
6HR MIN TEMP:  24; 6HR MAX TEMP:  31;

ASHLAND        CLOUDY    26  13  57 N10       30.12R WCI  16
6HR MIN TEMP:  23; 6HR MAX TEMP:  27; 6HR PCP: TRACE;

HAYWARD        CLOUDY    26  12  55 N8G16     30.08R WCI  18
6HR MIN TEMP:  23; 6HR MAX TEMP:  26; 6HR PCP: TRACE;

SIREN          CLOUDY    31  12  45 N14       30.09F WCI  21
6HR MIN TEMP:  26; 6HR MAX TEMP:  31;

CUMBERLAND     CLOUDY    30  14  51 N10G18    30.07S WCI  21
RICE LAKE      CLOUDY    30  15  52 N9G16     30.09R WCI  22
6HR MIN TEMP:  28; 6HR MAX TEMP:  31;

CHETEK         CLOUDY    30  15  53 N9        30.07S WCI  22
6HR MIN TEMP:  28; 6HR MAX TEMP:  31;

LADYSMITH      CLOUDY    29  16  58 NW10G17   30.06S WCI  20
6HR MIN TEMP:  27; 6HR MAX TEMP:  30;

EAU CLAIRE     CLOUDY    32  16  51 NW12      30.07R WCI  23
6HR MIN TEMP:  30; 6HR MAX TEMP:  33;

MENOMONIE      CLOUDY    34  16  48 NW13      30.08S WCI  25
6HR MIN TEMP:  31; 6HR MAX TEMP:  34;

NEW RICHMOND   CLOUDY    32  17  54 NW15      30.10S WCI  22
6HR MIN TEMP:  29; 6HR MAX TEMP:  32;

OSCEOLA        CLOUDY    32  17  55 NW13      30.13S WCI  22
6HR MIN TEMP:  30; 6HR MAX TEMP:  32;

$$

WIZ003>005-009-010-017-018-261900-
NORTH CENTRAL WISCONSIN

CITY           SKY/WX    TMP DP  RH WIND       PRES   REMARKS
MANITOWISH WTR CLOUDY    21  11  65 N13       30.00S WCI   9
6HR MIN TEMP:  20; 6HR MAX TEMP:  22;

ARBOR VITAE    FLURRIES  23  13  65 N16G22    29.99S WCI   9
6HR MIN TEMP:  22; 6HR MAX TEMP:  24;

WOODRUFF       FLURRIES  23  13  65 N16G22    29.99S WCI   9
6HR MIN TEMP:  22; 6HR MAX TEMP:  24;

RHINELANDER    FLURRIES  24  11  57 NW13      29.98R WCI  12
6HR MIN TEMP:  23; 6HR MAX TEMP:  26; 6HR PCP: TRACE;

EAGLE RIVER    FLURRIES  23  11  59 N16       29.97R WCI   9
6HR MIN TEMP:  22; 6HR MAX TEMP:  24;

LAND O LAKES   LGT SNOW  21  12  68 N12G21    29.99R WCI   9
6HR MIN TEMP:  21; 6HR MAX TEMP:  24;

PHILLIPS       CLOUDY    23  12  63 N8G18     30.02R WCI  14
6HR MIN TEMP:  21; 6HR MAX TEMP:  26;

TOMAHAWK       CLOUDY    25  13  58 N13G20    30.00S WCI  14
6HR MIN TEMP:  24; 6HR MAX TEMP:  27;

MEDFORD        CLOUDY    27  14  59 N13G21    30.00S WCI  16
6HR MIN TEMP:  24; 6HR MAX TEMP:  28;

MERRILL        CLOUDY    28  14  56 N15G21    29.98F WCI  16
6HR MIN TEMP:  26; 6HR MAX TEMP:  29;

$$

WIZ029-030-035-036-043>047-261900-
CENTRAL WISCONSIN

CITY           SKY/WX    TMP DP  RH WIND       PRES   REMARKS
WAUSAU         CLOUDY    27  15  61 NW15      29.97S WCI  15
6HR MIN TEMP:  27; 6HR MAX TEMP:  30; 6HR PCP: TRACE;

MOSINEE        CLOUDY    28  18  64 N12       29.99S WCI  18
MARSHFIELD     CLOUDY    30  18  60 NW15      30.00S WCI  19
6HR MIN TEMP:  28; 6HR MAX TEMP:  30;

STEVENS POINT  CLOUDY    27  17  64 NW13G18   29.99S WCI  16
6HR MIN TEMP:  27; 6HR MAX TEMP:  31;

WAUPACA        CLOUDY    34  18  52 NW10      29.98S WCI  26
6HR MIN TEMP:  33; 6HR MAX TEMP:  36;

WAUTOMA        CLOUDY    32  21  64 NW16      29.99S WCI  21
6HR MIN TEMP:  32; 6HR MAX TEMP:  34;

WISC RAPIDS    CLOUDY    30  16  56 N14       30.02R WCI  19
6HR MIN TEMP:  29; 6HR MAX TEMP:  32;

CAMP DOUGLAS   CLOUDY    34  21  60 NW15      30.00F WCI  24
                                      6HR PCP: TRACE;

$$

WIZ011>013-019>022-031-037>040-048>050-261900-
NORTHEAST WISCONSIN

CITY           SKY/WX    TMP DP  RH WIND       PRES   REMARKS
ANTIGO         CLOUDY    26  16  66 NW13G18   29.95S WCI  15
6HR MIN TEMP:  24; 6HR MAX TEMP:  28;

SHAWANO        CLOUDY    33  19  54 NW12      29.96S WCI  25
6HR MIN TEMP:  32; 6HR MAX TEMP:  36;

OCONTO         CLOUDY    32  19  56 NW8       29.95R WCI  25
6HR MIN TEMP:  32; 6HR MAX TEMP:  34;

STURGEON BAY   CLOUDY    30  19  64 N16       29.96R WCI  19
6HR MIN TEMP:  28; 6HR MAX TEMP:  34;

GREEN BAY      CLOUDY    33  21  61 NW14      29.96R WCI  23
6HR MIN TEMP:  33; 6HR MAX TEMP:  35;

MANITOWOC      LGT RAIN  33  23  66 NW13      29.95R WCI  24
6HR MIN TEMP:  33; 6HR MAX TEMP:  35; 6HR PCP: TRACE;

APPLETON       CLOUDY    32  18  55 NW15      29.96S WCI  22
CLINTONVILLE   CLOUDY    32  19  59 N10G18    29.97S WCI  24
OSHKOSH        CLOUDY    33  20  58 NW16G22   29.96S WCI  23
6HR MIN TEMP:  32; 6HR MAX TEMP:  34; 6HR PCP: TRACE;

$$

WIZ032>034-041-042-053>061-261900-
SOUTHWEST WISCONSIN

CITY           SKY/WX    TMP DP  RH WIND       PRES   REMARKS
LA CROSSE      CLOUDY    35  22  58 NW12      30.06S WCI  27
6HR MIN TEMP:  34; 6HR MAX TEMP:  35;

SPARTA         CLOUDY    34  19  53 W12G17    30.04S WCI  26
6HR MIN TEMP:  32; 6HR MAX TEMP:  34;

VIROQUA        CLOUDY    32  22  66 NW15      30.02S WCI  21
6HR MIN TEMP:  28; 6HR MAX TEMP:  32;

BOSCOBEL       CLOUDY    36  22  56 NW8       30.04F WCI  30
6HR MIN TEMP:  30; 6HR MAX TEMP:  36;

PRAIRIE DU CHI CLOUDY    35  21  56 NW13      30.06S WCI  26
6HR MIN TEMP:  29; 6HR MAX TEMP:  35;

PLATTEVILLE    PTSUNNY   36  26  66 W16       30.02S WCI  27
6HR MIN TEMP:  26; 6HR MAX TEMP:  36;

$$

WIZ056-057-062-063-064-067-068-261900-
SOUTH CENTRAL WISCONSIN

CITY           SKY/WX    TMP DP  RH WIND       PRES   REMARKS
REEDSBURG      CLOUDY    33  20  57 NW12G17   30.00S WCI  25
6HR MIN TEMP:  32; 6HR MAX TEMP:  34;

BARABOO/DELLS  CLOUDY    33  19  56 NW15      29.99F WCI  23
6HR MIN TEMP:  32; 6HR MAX TEMP:  34;

LONE ROCK      CLOUDY    36  21  54 NW12G22   30.02S WCI  28
6HR MIN TEMP:  29; 6HR MAX TEMP:  37;

MINERAL POINT  CLOUDY    36  21  55 NW16      30.00S WCI  26
MADISON        CLOUDY    36  20  52 NW14G23   29.98F WCI  27
6HR MIN TEMP:  31; 6HR MAX TEMP:  37;

MIDDLETON      CLOUDY    37  21  54 NW14      29.99F WCI  28
6HR MIN TEMP:  30; 6HR MAX TEMP:  37;

WATERTOWN      CLOUDY    35  22  59 NW16      29.96S WCI  25
6HR MIN TEMP:  33; 6HR MAX TEMP:  36;

MONROE         CLOUDY    36  23  60 NW12      29.98F WCI  27
JANESVILLE     CLOUDY    37  25  60 NW17      29.98F WCI  28
$$

WIZ051-052-058>065-066-070>072-261900-
SOUTHEAST WISCONSIN

CITY           SKY/WX    TMP DP  RH WIND       PRES   REMARKS
MILWAUKEE      CLOUDY    38  20  48 N13       29.96S WCI  30
6HR MIN TEMP:  36; 6HR MAX TEMP:  39;

WAUKESHA       CLOUDY    34  21  60 NW15      29.97S WCI  24
MILWAUKEE/TIMM CLOUDY    36  19  51 NW10      29.96S WCI  28
RACINE         CLOUDY    39  21  48 NW9       29.96F WCI  33
6HR MIN TEMP:  35; 6HR MAX TEMP:  41;

BURLINGTON     CLOUDY    36  21  55 NW18      29.96S WCI  25
6HR MIN TEMP:  32; 6HR MAX TEMP:  37;

KENOSHA        CLOUDY    39  24  55 W13       29.95F WCI  31
6HR MIN TEMP:  35; 6HR MAX TEMP:  40;

FOND DU LAC    CLOUDY    34  21  59 NW16      29.96S WCI  24
6HR MIN TEMP:  34; 6HR MAX TEMP:  35;

SHEBOYGAN      CLOUDY    34  22  61 NW13      29.95R WCI  25
6HR MIN TEMP:  34; 6HR MAX TEMP:  36;

WEST BEND      CLOUDY    34  21  60 NW13G22   29.95S WCI  25
JUNEAU         CLOUDY    33  21  62 NW12G22   29.97S WCI  24
6HR MIN TEMP:  33; 6HR MAX TEMP:  34;

$$

LSZ147-162-261900-
LAKE SUPERIOR

STATION/POSITION TIME  TEMP    WIND        PRES    WAVE
                       AIR SEA DIR/SP/G            HT/PER
                 (UTC) (F)     (DEG/KT/KT) (MB)    (FT/S)
DEVILS ISLAND    1800   22     340/ 12/ 16 1021.7S
PORT WING        1700   24      30/  6/  9 1021.0
$$

LMZ867-665-643>646-261900-
LAKE MICHIGAN

STATION/POSITION TIME  TEMP    WIND        PRES    WAVE
                       AIR SEA DIR/SP/G            HT/PER


USA.gov is the U.S. government's official web portal to all federal, state and local government web resources and services.